KI5NYZ Weather Reports


Display with metric or nautical units.
time (UTC)temp
F
wind
direction
speed
MPH
gust
MPH
rain 1hr
in
rain 24hr
in
rain mn
in
humidity
%
barometer
mb
20260903180020 98 189 5.0 9.0 0.03 0.16 0.08 27 1014.7
20260903175040 98 192 5.0 9.0 0.02 0.16 0.06 29 1014.8
20260903174022 97 194 4.0 10.0 0.01 0.15 0.06 30 1015.0
20260903173020 96 215 4.0 9.0 0.01 0.16 0.05 31 1015.1
20260903172024 95 198 4.0 8.0 0.02 0.16 0.05 31 1015.1
20260903171020 95 243 6.0 11.0 0.01 0.17 0.05 32 1015.2
20260903170021 94 234 5.0 10.0 0.02 0.18 0.05 33 1015.3
20260903165023 93 230 5.0 10.0 0.02 0.19 0.04 35 1015.3
20260903164021 93 218 5.0 9.0 0.02 0.19 0.04 35 1015.2
20260903163023 93 208 4.0 9.0 0.02 0.19 0.04 35 1015.2
20260903162023 91 229 5.0 9.0 0.02 0.20 0.04 37 1015.3
20260903161044 90 218 3.0 7.0 0.02 0.20 0.03 38 1015.3
20260903160023 90 224 4.0 10.0 0.02 0.21 0.03 39 1015.4
20260903155042 89 228 4.0 10.0 0.02 0.21 0.03 39 1015.3
20260903154023 89 203 4.0 9.0 0.03 0.21 0.03 39 1015.2
20260903153039 88 226 5.0 12.0 0.02 0.22 0.02 40 1015.2
20260903152021 87 223 4.0 8.0 0.02 0.23 0.02 41 1015.2
20260903151019 87 210 4.0 8.0 0.01 0.24 0.01 41 1015.2
20260903150020 86 223 5.0 9.0 0.01 0.25 0.01 42 1015.2
20260903145027 85 231 6.0 14.0 0.01 0.27 0.01 43 1015.2
20260903144024 85 234 8.0 12.0 0.00 0.27 0.00 44 1015.3
20260903143041 84 231 6.0 12.0 0.00 0.28 0.00 43 1015.4
20260903142044 82 230 5.0 10.0 0.00 0.29 0.00 46 1015.4
20260903141043 80 225 3.0 6.0 0.00 0.29 0.00 48 1015.4
20260903140024 78 230 3.0 5.0 0.00 0.29 0.00 50 1015.4
20260903135022 77 236 2.0 4.0 0.00 0.29 0.00 51 1015.2
20260903134026 75 198 1.0 3.0 0.00 0.29 0.00 53 1015.4
20260903133041 73 191 0.0 2.0 0.00 0.29 0.00 55 1015.3
20260903132022 72 208 0.0 2.0 0.00 0.29 0.00 57 1015.3
20260903131022 71 222 0.0 2.0 0.00 0.29 0.00 59 1015.2
20260903130021 70 231 0.0 2.0 0.00 0.29 0.00 61 1015.1
20260903125044 69 241 0.0 2.0 0.00 0.29 0.00 62 1015.0
20260903124023 68 0 0.0 0.0 0.00 0.29 0.00 63 1014.9
20260903123022 69 0 0.0 0.0 0.00 0.29 0.00 64 1014.9
20260903122021 69 0 0.0 0.0 0.00 0.29 0.00 63 1014.8
20260903121027 69 0 0.0 0.0 0.00 0.29 0.00 63 1014.8
20260903120027 69 0 0.0 0.0 0.00 0.29 0.00 63 1014.7
20260903115021 69 0 0.0 0.0 0.00 0.29 0.00 63 1014.8
20260903114041 69 0 0.0 0.0 0.00 0.29 0.00 63 1014.8
20260903113018 69 0 0.0 0.0 0.00 0.29 0.00 63 1014.7
20260903112023 70 0 0.0 0.0 0.00 0.29 0.00 62 1014.7
20260903111020 70 168 0.0 1.0 0.00 0.29 0.00 60 1014.6
20260903110019 71 0 0.0 0.0 0.00 0.29 0.00 58 1014.6
20260903105023 71 221 0.0 3.0 0.00 0.29 0.00 59 1014.6
20260903104039 71 222 0.0 1.0 0.00 0.29 0.00 58 1014.6
20260903103043 72 231 2.0 6.0 0.00 0.29 0.00 57 1014.6
20260903102022 72 220 1.0 4.0 0.00 0.29 0.00 56 1014.7
20260903101028 72 211 1.0 3.0 0.00 0.29 0.00 56 1014.7
20260903100045 73 231 2.0 7.0 0.00 0.29 0.00 55 1014.7
20260903095022 74 192 1.0 4.0 0.00 0.29 0.00 53 1014.8
20260903094022 74 188 2.0 4.0 0.00 0.29 0.00 53 1014.8
20260903093021 74 194 1.0 3.0 0.00 0.29 0.00 53 1014.7
20260903092022 74 199 1.0 3.0 0.00 0.29 0.00 52 1014.7
20260903091025 74 185 1.0 3.0 0.00 0.29 0.00 53 1014.7
20260903090021 73 206 0.0 2.0 0.00 0.29 0.00 54 1014.8
20260903085041 73 181 1.0 4.0 0.00 0.29 0.00 54 1014.8
20260903084039 73 181 2.0 4.0 0.00 0.29 0.00 55 1014.8
20260903083046 73 145 0.0 2.0 0.00 0.29 0.00 55 1014.8
20260903082020 75 186 0.0 2.0 0.00 0.29 0.00 49 1014.8
20260903081018 75 198 0.0 2.0 0.00 0.29 0.00 49 1014.8
20260903080025 76 181 0.0 3.0 0.00 0.29 0.00 48 1014.9
20260903075020 76 175 1.0 3.0 0.00 0.29 0.00 47 1014.9
20260903074020 77 179 1.0 3.0 0.00 0.29 0.00 46 1014.9
20260903073019 77 191 1.0 4.0 0.00 0.29 0.00 45 1014.9
20260903072025 77 173 3.0 3.0 0.00 0.29 0.00 45 1014.9
20260903071021 77 183 2.0 2.0 0.00 0.29 0.00 45 1014.9
20260903070022 78 196 1.0 3.0 0.00 0.29 0.00 44 1014.8
20260903065041 79 199 2.0 4.0 0.00 0.29 0.00 43 1014.8
20260903064024 80 191 2.0 5.0 0.00 0.29 0.00 42 1014.8
20260903063046 80 193 3.0 6.0 0.00 0.29 0.00 41 1014.8
20260903062023 80 183 3.0 6.0 0.00 0.29 0.00 40 1014.8
20260903061102 81 187 4.0 7.0 0.00 0.29 0.00 40 1014.7
20260903060024 81 193 3.0 6.0 0.00 0.29 0.00 39 1014.8
20260903055039 82 191 3.0 5.0 0.00 0.29 0.00 38 1014.8
20260903054025 80 186 3.0 7.0 0.00 0.29 0.00 38 1014.7
20260903053019 79 181 2.0 5.0 0.00 0.29 0.00 41 1014.7
20260903052042 79 175 1.0 4.0 0.00 0.29 0.00 44 1014.7
20260903051020 79 187 0.0 2.0 0.00 0.29 0.00 42 1014.8
20260903050040 80 184 0.0 3.0 0.00 0.29 0.00 42 1014.8
20260903045019 80 171 0.0 2.0 0.00 0.29 0.29 42 1014.8
20260903044025 80 200 1.0 2.0 0.00 0.29 0.29 42 1014.9
20260903043020 81 206 0.0 2.0 0.00 0.29 0.29 40 1015.0
20260903042020 81 192 1.0 3.0 0.00 0.29 0.29 39 1015.0
20260903041021 82 187 2.0 4.0 0.00 0.29 0.29 39 1014.9
20260903040043 83 185 1.0 3.0 0.00 0.29 0.29 39 1015.0
20260903035023 83 192 1.0 4.0 0.00 0.29 0.29 39 1015.0
20260903034021 84 174 0.0 2.0 0.00 0.29 0.29 36 1014.9
20260903033044 84 180 1.0 4.0 0.00 0.29 0.29 36 1014.8
20260903032022 84 178 2.0 4.0 0.00 0.29 0.29 37 1014.7
20260903031025 85 187 1.0 4.0 0.00 0.29 0.29 36 1014.6
20260903030023 85 180 0.0 3.0 0.00 0.29 0.29 35 1014.5
20260903025046 85 178 2.0 4.0 0.00 0.29 0.29 35 1014.4
20260903024024 86 182 1.0 4.0 0.00 0.29 0.29 34 1014.3
20260903023018 86 183 1.0 3.0 0.00 0.29 0.29 34 1014.2
20260903022025 87 176 2.0 4.0 0.00 0.29 0.29 34 1014.2
20260903021019 88 195 0.0 3.0 0.00 0.29 0.29 33 1014.1
20260903020019 88 187 1.0 3.0 0.00 0.29 0.29 33 1014.0
20260903015020 89 189 1.0 2.0 0.00 0.29 0.29 32 1014.0
20260903014020 89 180 2.0 4.0 0.00 0.29 0.29 32 1013.9
20260903013019 90 185 1.0 3.0 0.00 0.29 0.29 32 1013.8
20260903012021 91 182 2.0 4.0 0.00 0.29 0.29 31 1013.8
20260903011022 92 185 1.0 5.0 0.00 0.29 0.29 30 1013.8
20260903010020 93 182 1.0 5.0 0.00 0.29 0.29 29 1013.7
20260903005022 95 178 1.0 5.0 0.00 0.29 0.29 27 1013.5
20260903004021 97 191 1.0 4.0 0.00 0.29 0.29 26 1013.6
20260903003025 97 193 0.0 3.0 0.00 0.29 0.29 25 1013.5
20260903002023 98 188 2.0 5.0 0.00 0.29 0.29 25 1013.6
20260903001022 99 188 1.0 4.0 0.00 0.29 0.29 24 1013.5
20260903000047 99 198 1.0 6.0 0.01 0.30 0.29 24 1013.5
20260902235022 98 186 2.0 6.0 0.01 0.30 0.29 24 1013.5
20260902234045 98 191 2.0 7.0 0.01 0.30 0.29 24 1013.6
20260902233021 98 142 1.0 4.0 0.01 0.30 0.29 24 1013.6
20260902232046 99 185 2.0 5.0 0.01 0.30 0.29 23 1013.7
20260902231019 99 191 3.0 8.0 0.01 0.30 0.29 24 1013.7
20260902230021 99 183 2.0 8.0 0.00 0.31 0.29 23 1013.7
20260902225019 100 181 2.0 6.0 0.00 0.31 0.28 23 1013.7
20260902224024 101 159 2.0 6.0 0.01 0.31 0.28 22 1013.8
20260902223019 100 179 1.0 6.0 0.01 0.32 0.28 23 1013.8
20260902222023 100 195 3.0 8.0 0.01 0.33 0.28 23 1013.9
20260902221019 99 185 2.0 8.0 0.01 0.33 0.28 23 1014.0
20260902220021 100 128 2.0 6.0 0.01 0.35 0.28 23 1013.9
20260902215025 100 154 2.0 7.0 0.01 0.35 0.28 23 1014.1
20260902214020 100 175 3.0 8.0 0.01 0.35 0.28 23 1014.2
20260902213026 100 162 1.0 7.0 0.01 0.36 0.28 23 1014.3
20260902212021 100 199 2.0 7.0 0.01 0.36 0.28 24 1014.4
20260902211024 100 174 2.0 10.0 0.01 0.37 0.27 23 1014.5
20260902210022 99 189 4.0 10.0 0.01 0.38 0.27 24 1014.7
20260902205041 99 195 2.0 9.0 0.01 0.38 0.27 24 1014.8
20260902204025 99 115 2.0 6.0 0.01 0.40 0.26 24 1014.9
20260902203028 99 149 1.0 5.0 0.02 0.40 0.26 24 1015.1
20260902202022 98 163 2.0 6.0 0.02 0.41 0.26 25 1015.2
20260902201043 98 166 1.0 4.0 0.03 0.41 0.26 25 1015.4
20260902200041 98 184 4.0 9.0 0.03 0.42 0.26 25 1015.5
20260902195020 99 152 2.0 5.0 0.02 0.42 0.26 25 1015.7
20260902194022 99 197 3.0 9.0 0.03 0.42 0.26 24 1015.9
20260902193019 98 226 3.0 12.0 0.03 0.42 0.25 26 1015.9
20260902192040 98 210 3.0 7.0 0.02 0.41 0.24 26 1016.2
20260902191020 98 187 4.0 8.0 0.02 0.43 0.24 26 1016.3
20260902190039 98 191 4.0 10.0 0.03 0.43 0.23 26 1016.4
20260902185022 97 212 4.0 10.0 0.03 0.44 0.23 28 1016.6
20260902184022 97 214 4.0 8.0 0.03 0.43 0.23 27 1016.7
20260902183021 96 201 3.0 6.0 0.04 0.44 0.22 27 1016.9
20260902182019 96 232 4.0 8.0 0.04 0.44 0.22 27 1017.1
20260902181021 96 181 4.0 10.0 0.05 0.44 0.22 28 1017.3